Ithaca, NY

9:58 AM EDT on August 25, 2016 (GMT -0400)
Tompkins County

Weather History for KITH - February, 2014

Change the Weather History Date:

Tuesday, February 25, 2014

  Actual Average Record
Temperature  
Mean Temperature 16 °F -  
Max Temperature 20 °F 36 °F 63 °F (1985)
Min Temperature 12 °F 19 °F -6 °F (1959)
Degree Days  
Heating Degree Days 49    
Moisture  
Dew Point 8 °F    
Average Humidity 70    
Maximum Humidity 86    
Minimum Humidity 52    
Precipitation  
Precipitation 0.00 in - - ()
Sea Level Pressure  
Sea Level Pressure 30.02 in    
Wind  
Wind Speed 8 mph (WNW)    
Max Wind Speed 17 mph    
Max Gust Speed 25 mph    
Visibility 9 miles    
Events Snow    
Averages and records for this station are not official NWS values.
T = Trace of Precipitation, MM = Missing Value Source: NWS Daily Summary

Daily Weather History Graph

Daily Weather History Graph

Search for Another Location

Airport or City:

Trip Planner

Search our weather history database for the weather conditions in past years. The results will help you decide how hot, cold, wet, or windy it might be!

Date:

Astronomy

Feb. 25, 2014 Rise Set
Actual Time 6:47 AM EST 5:50 PM EST
Civil Twilight 6:19 AM EST 6:19 PM EST
Nautical Twilight 5:46 AM EST 6:51 PM EST
Astronomical Twilight 5:14 AM EST 7:24 PM EST
Moon 3:44 AM EST 1:50 PM EST
Length of Visible Light 11h 59m
Length of Day
11h 02m
Waning Crescent, 18% of the Moon is Illuminated
Feb 25
Waning Crescent
Mar 1
New
Mar 8
First Quarter
Mar 16
Full
Mar 23
Last Quarter

Hourly Weather History & Observations

Time (EST) Temp. Windchill Dew Point Humidity Pressure Visibility Wind Dir Wind Speed Gust Speed Precip Events Conditions
12:23 AM 15.8 °F 6.1 °F 10.4 °F 79% 30.03 in 10.0 mi West 6.9 mph - 0.00 in Snow Light Snow
12:32 AM 15.8 °F 5.1 °F 10.4 °F 79% 30.03 in 9.0 mi West 8.1 mph - 0.00 in Snow Light Snow
12:41 AM 15.8 °F 7.2 °F 10.4 °F 79% 30.03 in 8.0 mi West 5.8 mph - 0.00 in Snow Light Snow
12:56 AM 16.2 °F 7.6 °F 11.1 °F 81% 30.08 in 10.0 mi West 5.8 mph - 0.00 in Snow Light Snow
1:56 AM 17.1 °F 8.7 °F 12.0 °F 81% 30.07 in 5.0 mi West 5.8 mph - 0.00 in Snow Light Snow
2:30 AM 15.8 °F 7.2 °F 12.2 °F 86% 30.00 in 4.0 mi West 5.8 mph - 0.00 in Snow Light Snow
2:56 AM 16.2 °F 7.6 °F 12.0 °F 84% 30.05 in 10.0 mi West 5.8 mph - 0.00 in Snow Light Snow
3:56 AM 16.2 °F 4.7 °F 10.0 °F 77% 30.04 in 10.0 mi West 9.2 mph - 0.00 in   Overcast
4:56 AM 15.1 °F 4.2 °F 9.1 °F 77% 30.04 in 10.0 mi West 8.1 mph - N/A   Overcast
5:56 AM 16.2 °F 3.9 °F 8.1 °F 70% 30.03 in 10.0 mi West 10.4 mph - N/A   Overcast
6:20 AM 15.8 °F 3.4 °F 8.6 °F 73% 29.98 in 10.0 mi West 10.4 mph - N/A   Overcast
6:56 AM 16.2 °F 3.2 °F 7.2 °F 68% 30.03 in 10.0 mi West 11.5 mph - N/A   Overcast
7:56 AM 16.2 °F 3.9 °F 8.1 °F 70% 30.04 in 10.0 mi WNW 10.4 mph - N/A   Overcast
8:49 AM 17.6 °F 5.7 °F 10.4 °F 73% 29.98 in 6.0 mi WNW 10.4 mph - 0.00 in Snow Light Snow
8:56 AM 18.1 °F 4.4 °F 10.0 °F 71% 30.04 in 4.0 mi WNW 13.8 mph - 0.00 in Snow Light Snow
9:56 AM 19.0 °F 4.0 °F 5.0 °F 54% 30.04 in 10.0 mi West 17.3 mph 23.0 mph 0.00 in   Mostly Cloudy
10:56 AM 20.1 °F 6.9 °F 9.1 °F 62% 30.04 in 7.0 mi West 13.8 mph 25.3 mph 0.00 in   Mostly Cloudy
11:56 AM 20.1 °F 6.4 °F 6.1 °F 55% 30.04 in 10.0 mi West 15.0 mph - 0.00 in   Mostly Cloudy
12:56 PM 19.0 °F 4.0 °F 4.1 °F 52% 30.03 in 10.0 mi WNW 17.3 mph 23.0 mph 0.00 in   Mostly Cloudy
1:56 PM 19.0 °F 4.5 °F 5.0 °F 54% 30.01 in 10.0 mi West 16.1 mph 21.9 mph N/A   Overcast
2:56 PM 20.1 °F 6.9 °F 5.0 °F 52% 30.00 in 10.0 mi WNW 13.8 mph - N/A   Mostly Cloudy
3:56 PM 20.1 °F 8.1 °F 6.1 °F 55% 30.00 in 10.0 mi NW 11.5 mph - N/A   Mostly Cloudy
4:56 PM 19.0 °F 7.5 °F 6.1 °F 57% 30.01 in 10.0 mi NW 10.4 mph - N/A   Mostly Cloudy
5:56 PM 17.1 °F 8.7 °F 7.2 °F 65% 30.01 in 10.0 mi NNW 5.8 mph - N/A   Mostly Cloudy
6:56 PM 14.0 °F 8.2 °F 6.1 °F 71% 30.00 in 10.0 mi North 3.5 mph - N/A   Clear
7:56 PM 12.0 °F - 6.1 °F 77% 30.01 in 10.0 mi Calm Calm - N/A   Mostly Cloudy
8:56 PM 13.1 °F 7.1 °F 7.2 °F 77% 29.99 in 10.0 mi North 3.5 mph - N/A   Overcast
9:56 PM 14.0 °F 8.2 °F 9.1 °F 81% 29.99 in 10.0 mi WNW 3.5 mph - N/A   Overcast
10:56 PM 16.2 °F 9.0 °F 8.1 °F 70% 29.96 in 10.0 mi West 4.6 mph - N/A   Overcast
11:56 PM 16.2 °F 6.5 °F 8.1 °F 70% 29.94 in 10.0 mi SW 6.9 mph - 0.00 in   Overcast